Tracking 21076 objects as of 7-Aug-2020
HD Live streaming from Space Station
objects crossing your sky now

METEOR 2-5 DEB

Track METEOR 2-5 DEB now!
10-day predictions


NORAD ID: 36903
Int'l Code: 1979-095AU
Perigee: 603.3 km
Apogee: 615.8 km
Inclination: 81.2 °
Period: 96.7 minutes
Semi major axis: 6980 km
RCS: 0.007 m2 (small)
Launch date: October 31, 1979
Source: Commonwealth of Independent States (former USSR) (CIS)
Launch site: PLESETSK MISSILE AND SPACE COMPLEX (PKMTR)

Note: This is SATELLITE DEBRIS
aabbcc
Your satellite tracking list
Your tracking list is empty




NASA's NSSDC Master Catalog

Two Line Element Set (TLE):
1 36903U 79095AU  20216.77942266  .00003557  00000-0  38019-3 0  9999
2 36903  81.1796 345.8660 0008946  14.1221 346.0241 14.88553451798632
Source of the keplerian elements: AFSPC